Wind_Speed
14 14 13 12 12 12 12 12 11 10 10 9 8 8 7 7 6 6 5 5 4 3 3 2 2 2 2 2 2 2 3 3 4 4 4 4 4 4 4 4 5 4 4
16 15 15 14 13 13 13 13 12 12 11 10 10 9 8 8 7 7 7 6 5 4 3 3 3 3 3 2 2 2 2 2 3 3 3 3 3 3 3 3 3 3 3
18 17 16 16 15 15 14 14 14 13 12 12 11 10 10 9 9 8 8 7 6 5 5 4 4 4 4 4 3 3 3 3 2 2 2 2 1 1 2 2 2 2 3
20 19 18 18 17 16 16 16 15 15 14 14 13 12 11 11 10 10 9 9 8 7 6 5 5 5 5 5 4 4 4 3 3 2 2 1 1 1 1 1 1 2 2
21 20 20 19 19 18 17 17 17 16 16 15 14 14 13 13 12 11 11 10 9 9 8 7 7 6 6 6 5 5 4 4 4 3 3 2 1 1 0 0 1 2 3
23 22 21 21 20 20 19 18 18 18 17 17 16 16 15 14 14 13 12 12 11 10 9 8 8 8 7 7 6 6 6 5 5 4 4 3 3 2 2 1 2 2 2
25 24 23 22 22 21 20 19 19 19 18 18 17 17 17 16 15 15 14 14 13 12 11 10 10 9 8 8 8 7 7 6 6 5 5 4 4 4 3 3 3 3 3
26 26 25 24 24 23 22 21 21 21 20 20 19 18 18 17 17 16 16 16 15 14 13 12 12 11 10 9 9 8 8 8 7 7 6 6 6 6 5 5 5 5 5
28 27 27 26 26 25 24 23 22 22 22 22 21 20 19 19 18 18 17 17 17 16 15 15 14 13 12 11 11 10 10 9 9 8 8 8 8 8 7 7 7 7 7
30 29 28 28 27 27 26 25 24 24 24 23 23 22 21 21 20 19 19 18 18 18 17 16 16 15 14 13 12 12 11 11 11 10 10 10 10 10 9 9 9 9 9
32 31 30 30 29 29 28 27 26 26 25 25 25 24 23 23 22 21 21 20 19 19 19 18 18 17 16 16 15 14 14 13 13 13 12 12 12 12 11 11 11 10 10
34 33 32 31 31 31 30 29 28 28 27 27 26 26 25 24 24 24 23 22 22 21 20 20 19 19 18 18 17 17 16 15 15 15 15 14 14 14 13 13 12 12 11
36 35 35 33 32 32 32 31 30 29 29 28 28 27 27 26 26 25 25 24 23 22 22 21 21 20 20 20 20 19 18 17 17 17 17 16 15 15 14 14 13 13 13
38 38 37 36 35 34 34 33 32 32 31 30 29 29 28 28 27 27 27 26 25 24 24 23 23 23 22 22 21 21 20 19 19 19 18 18 17 16 16 15 15 15 15
40 40 39 39 38 37 36 35 35 34 34 33 32 31 30 30 30 29 29 28 28 27 26 25 25 25 25 24 23 22 22 21 21 20 20 19 19 18 18 17 17 17 17
42 42 41 41 40 40 39 38 37 37 36 35 35 34 33 32 32 31 30 30 30 29 28 28 27 27 26 26 25 24 23 23 22 22 22 21 21 20 20 19 19 19 19
44 43 43 43 43 42 41 40 40 39 38 38 37 36 35 34 34 33 32 31 31 31 30 29 28 28 28 27 26 26 25 25 24 24 23 22 22 22 21 20 20 20 19
46 46 45 45 45 44 43 42 42 41 40 40 39 38 37 37 36 35 34 33 32 32 31 31 30 29 29 28 27 27 27 27 26 25 25 24 23 23 22 21 21 20 20
48 48 47 46 46 45 45 44 43 43 43 42 41 40 39 39 38 37 36 35 34 33 33 32 32 31 30 29 29 29 29 28 27 27 26 26 25 25 24 23 23 22 22
49 50 49 48 47 46 46 46 45 44 44 44 43 42 42 41 40 39 38 37 36 35 34 33 33 33 32 31 31 30 30 30 29 28 28 27 27 27 26 26 25 24 24
51 51 51 50 50 49 48 48 47 46 45 45 46 45 44 43 42 41 41 40 39 38 37 36 35 35 34 33 32 32 31 31 31 31 30 29 29 28 28 28 27 26 26
52 52 52 51 52 51 50 50 50 48 47 47 47 48 47 45 45 44 43 42 41 40 39 38 37 36 36 35 34 34 33 32 32 31 31 31 31 30 29 29 28 28 27
52 52 52 52 52 52 51 51 51 50 50 49 49 48 49 48 46 45 44 44 43 42 40 39 38 38 38 37 36 36 35 34 33 32 32 32 32 31 30 30 29 28 28
51 52 52 52 52 51 52 52 53 52 52 52 49 49 49 49 48 47 45 45 44 44 43 41 40 40 40 39 38 38 37 36 35 34 33 32 32 32 31 31 30 30 29
51 51 51 52 52 52 53 52 52 53 52 52 53 50 50 51 51 49 48 48 47 46 45 44 43 42 41 40 40 39 39 37 36 35 35 34 33 32 32 32 31 31 30
51 51 52 52 52 52 53 52 52 52 54 54 53 52 51 51 51 51 50 48 47 47 47 46 44 43 42 42 41 40 40 39 37 37 36 35 34 34 33 33 33 32 31
Wind_Direction
227 227 226 225 223 219 216 215 212 210 207 202 201 200 198 196 192 191 194 192 189 189 191 193 187 174 170 162 153 151 142 129 122 115 110 103 100 97 92 88 83 78 72
228 228 229 228 227 223 220 219 217 216 214 207 206 206 206 205 205 205 208 207 206 208 211 211 210 208 202 193 187 182 176 160 139 131 123 114 105 96 91 85 78 71 60
229 229 231 231 229 227 224 222 221 221 219 213 211 212 212 212 213 214 214 215 217 220 224 224 227 228 223 218 216 210 200 197 165 156 150 141 128 102 89 78 63 51 37
231 230 231 232 230 228 226 225 224 223 222 219 218 219 219 218 217 218 219 221 224 227 230 233 233 234 233 233 232 223 213 212 203 193 188 184 176 136 101 73 45 28 14
233 231 231 232 230 229 229 228 226 225 225 222 222 223 223 220 219 221 222 224 227 231 233 237 237 235 237 240 238 230 223 219 219 217 217 216 211 208 208 5 9 1 355
234 233 232 231 230 230 230 229 228 227 226 225 225 226 224 223 223 223 226 228 230 233 235 236 238 239 238 238 239 236 231 229 230 235 232 228 221 230 244 269 306 317 333
234 234 232 231 231 231 231 230 229 229 228 227 226 227 226 226 226 226 229 232 233 236 238 237 238 240 240 238 238 235 231 232 237 245 245 243 239 241 245 263 283 295 305
234 234 234 232 231 231 232 233 231 231 230 229 228 228 229 229 229 230 231 234 236 238 240 239 238 238 238 239 239 235 231 233 240 246 249 252 249 249 254 265 274 280 286
233 233 233 233 233 233 232 233 233 232 231 230 229 229 230 231 231 232 234 235 237 239 240 238 238 238 239 240 240 239 236 238 244 249 254 257 255 255 259 266 272 278 282
234 234 235 234 233 233 232 232 233 233 232 231 230 230 231 231 232 234 235 236 238 239 239 239 239 239 239 241 242 243 243 243 247 253 257 257 259 261 261 265 271 275 278
234 235 235 235 234 234 233 232 232 233 233 232 231 231 232 232 233 235 237 238 239 239 239 240 241 240 241 242 243 244 246 247 249 254 257 260 261 262 262 267 270 272 273
234 235 235 235 235 235 234 234 234 234 234 233 233 233 233 234 235 236 237 239 239 239 239 240 240 241 242 243 244 245 248 249 250 254 258 261 262 264 263 267 271 271 271
235 235 236 236 235 235 234 234 235 235 235 235 235 235 235 235 236 237 238 239 240 240 241 241 242 243 244 244 244 246 248 250 251 253 256 259 262 264 264 266 269 269 269
236 236 236 236 236 235 234 234 234 236 236 235 236 236 236 236 237 238 239 240 240 241 242 243 243 244 245 245 246 246 248 250 252 254 256 258 260 263 264 265 267 268 270
236 236 236 237 237 236 236 236 235 235 236 236 236 236 237 237 238 239 240 240 241 242 243 244 244 244 245 246 246 247 248 250 251 253 256 256 258 261 264 266 267 268 270
237 237 237 237 237 237 236 236 236 235 236 236 237 236 237 237 239 240 241 241 241 242 244 244 244 244 246 246 247 247 247 249 251 253 255 255 256 259 262 265 266 269 270
238 237 237 237 237 237 237 237 237 237 237 237 237 237 237 238 239 240 241 241 241 242 243 243 244 244 245 247 247 247 248 249 251 253 255 255 256 258 260 262 265 268 270
238 238 238 238 237 237 237 237 237 237 237 237 237 237 238 239 240 240 240 241 241 242 243 243 244 244 245 246 248 248 250 251 252 254 255 255 256 256 258 261 264 266 269
238 238 238 238 238 237 236 236 237 237 237 238 238 237 238 239 239 240 241 241 242 242 243 244 245 245 245 246 248 249 250 252 252 253 255 256 256 257 259 261 264 266 267
238 238 237 237 237 237 236 236 236 237 237 238 238 238 238 238 239 240 241 242 242 243 243 244 245 246 246 246 247 249 251 252 252 253 255 255 257 258 260 261 262 264 266
238 237 237 237 236 236 236 235 235 236 237 238 238 239 239 239 239 240 241 242 243 244 244 244 245 246 245 246 247 248 250 251 252 253 255 256 257 259 260 262 262 263 265
238 237 236 236 237 237 236 236 236 237 237 238 238 239 238 238 240 241 241 242 243 244 243 244 245 246 245 246 247 248 249 251 252 253 255 256 257 259 260 262 262 263 265
238 237 237 237 237 237 237 238 238 237 238 238 238 238 238 237 238 239 240 241 241 242 242 242 243 245 246 247 248 249 249 250 252 253 254 255 256 257 259 260 262 264 265
238 237 237 237 237 238 239 239 239 238 238 238 238 237 237 237 237 237 238 239 239 240 242 242 243 244 246 246 248 249 249 250 251 252 253 255 257 257 258 260 262 263 264
238 237 237 237 237 239 239 239 239 238 238 238 237 236 236 236 237 237 237 238 239 239 240 242 243 244 245 246 248 249 249 250 251 252 253 255 256 256 258 260 261 262 264
238 237 236 237 238 239 239 239 240 239 238 238 237 236 236 236 236 236 237 238 238 238 239 241 243 244 245 246 248 249 248 249 250 252 252 253 255 256 258 259 260 261 264
Height
5836 5838 5839 5841 5842 5844 5845 5847 5848 5850 5851 5853 5854 5855 5857 5858 5859 5860 5862 5863 5864 5865 5866 5867 5868 5869 5869 5870 5871 5871 5872 5872 5873 5873 5873 5874 5874 5874 5874 5874 5874 5874 5874
5834 5835 5837 5839 5840 5842 5843 5845 5847 5848 5850 5851 5853 5854 5856 5857 5858 5860 5861 5862 5863 5864 5865 5866 5867 5868 5869 5870 5871 5871 5872 5872 5873 5873 5874 5874 5875 5875 5875 5875 5875 5875 5875
5831 5833 5834 5836 5838 5840 5841 5843 5845 5846 5848 5849 5851 5853 5854 5856 5857 5859 5860 5861 5862 5864 5865 5866 5867 5868 5868 5869 5870 5871 5872 5872 5873 5873 5874 5874 5875 5875 5875 5875 5875 5875 5875
5828 5829 5831 5833 5835 5837 5839 5840 5842 5844 5846 5847 5849 5851 5853 5854 5856 5857 5859 5860 5861 5862 5864 5865 5866 5867 5868 5869 5869 5870 5871 5872 5872 5873 5873 5874 5874 5874 5874 5875 5875 5875 5875
5824 5826 5828 5830 5832 5834 5836 5838 5839 5841 5843 5845 5847 5849 5850 5852 5854 5855 5857 5858 5860 5861 5862 5863 5865 5866 5867 5868 5869 5869 5870 5871 5872 5872 5873 5873 5874 5874 5874 5874 5874 5874 5875
5820 5822 5824 5826 5828 5830 5833 5835 5837 5838 5840 5842 5844 5846 5848 5850 5851 5853 5855 5857 5858 5860 5861 5862 5863 5864 5865 5866 5867 5868 5869 5870 5871 5872 5872 5873 5873 5873 5874 5874 5874 5874 5874
5815 5817 5820 5822 5825 5827 5829 5831 5833 5835 5837 5839 5841 5843 5845 5847 5849 5851 5852 5854 5856 5858 5859 5860 5862 5863 5864 5865 5866 5867 5868 5869 5870 5871 5871 5872 5872 5873 5873 5873 5873 5873 5873
5810 5813 5815 5818 5820 5823 5825 5827 5830 5832 5834 5836 5838 5840 5842 5844 5846 5848 5850 5852 5853 5855 5857 5858 5860 5861 5862 5863 5864 5865 5866 5867 5868 5869 5870 5871 5871 5871 5872 5872 5872 5872 5872
5805 5807 5810 5813 5816 5818 5821 5823 5825 5828 5830 5832 5834 5836 5839 5841 5843 5845 5847 5849 5851 5852 5854 5856 5857 5859 5860 5861 5862 5863 5865 5866 5867 5868 5868 5869 5870 5870 5870 5871 5871 5871 5871
5799 5802 5805 5808 5810 5813 5816 5818 5821 5823 5825 5828 5830 5833 5835 5837 5839 5841 5843 5845 5847 5849 5851 5852 5854 5856 5857 5859 5860 5861 5862 5863 5865 5865 5866 5867 5867 5868 5868 5869 5869 5869 5869
5793 5796 5799 5802 5805 5808 5811 5813 5816 5818 5821 5823 5826 5828 5831 5833 5835 5837 5840 5842 5844 5845 5847 5849 5851 5853 5854 5856 5857 5858 5860 5861 5862 5863 5864 5864 5865 5865 5866 5866 5866 5867 5867
5787 5790 5793 5796 5799 5802 5805 5808 5810 5813 5816 5818 5821 5823 5826 5828 5831 5833 5835 5837 5840 5842 5843 5845 5847 5849 5851 5852 5854 5855 5857 5858 5859 5860 5861 5862 5862 5863 5863 5863 5864 5864 5864
5780 5783 5786 5789 5792 5795 5799 5802 5805 5807 5810 5813 5815 5818 5821 5823 5826 5828 5831 5833 5835 5837 5839 5841 5843 5845 5847 5848 5850 5852 5853 5854 5856 5857 5858 5858 5859 5860 5860 5861 5861 5861 5862
5772 5775 5778 5782 5785 5788 5791 5795 5798 5801 5804 5807 5809 5812 5815 5818 5820 5823 5826 5828 5830 5832 5835 5837 5839 5840 5842 5844 5846 5847 5849 5850 5852 5853 5854 5855 5856 5856 5857 5857 5858 5858 5858
5763 5767 5770 5773 5777 5780 5784 5787 5791 5794 5797 5800 5803 5806 5809 5812 5814 5817 5820 5822 5825 5827 5829 5831 5833 5835 5837 5839 5841 5843 5845 5846 5848 5849 5850 5851 5852 5853 5853 5854 5854 5854 5855
5754 5758 5761 5765 5768 5772 5776 5779 5783 5786 5789 5793 5796 5799 5802 5805 5808 5811 5813 5816 5818 5821 5824 5826 5828 5830 5832 5834 5836 5838 5840 5841 5843 5844 5845 5847 5847 5848 5849 5850 5850 5850 5851
5744 5748 5752 5755 5759 5763 5767 5771 5774 5778 5781 5785 5788 5792 5795 5798 5801 5804 5807 5809 5812 5815 5817 5819 5822 5824 5826 5829 5831 5833 5834 5836 5838 5839 5840 5842 5843 5844 5844 5845 5846 5846 5847
5734 5738 5741 5745 5749 5753 5758 5762 5765 5768 5772 5776 5780 5783 5787 5790 5793 5796 5799 5802 5805 5808 5810 5813 5815 5818 5820 5823 5825 5827 5829 5831 5832 5834 5835 5837 5838 5839 5840 5840 5841 5842 5842
5722 5726 5730 5735 5739 5743 5748 5752 5756 5759 5763 5767 5771 5774 5778 5782 5785 5788 5792 5795 5798 5801 5803 5806 5809 5811 5814 5816 5818 5820 5822 5824 5826 5828 5830 5831 5832 5833 5834 5835 5836 5837 5837
5710 5714 5719 5723 5728 5732 5737 5742 5746 5750 5753 5757 5761 5765 5769 5773 5776 5780 5783 5787 5790 5793 5796 5799 5802 5804 5807 5810 5812 5814 5816 5818 5820 5822 5823 5825 5826 5828 5829 5830 5831 5831 5832
5697 5702 5707 5711 5716 5721 5725 5730 5735 5739 5743 5747 5751 5755 5759 5763 5767 5770 5774 5778 5781 5785 5788 5791 5794 5797 5800 5802 5805 5807 5809 5811 5813 5815 5817 5818 5820 5821 5822 5823 5825 5826 5826
5685 5689 5694 5700 5704 5709 5714 5719 5724 5728 5733 5737 5740 5744 5749 5753 5757 5761 5765 5768 5772 5775 5779 5782 5786 5789 5792 5795 5797 5799 5802 5804 5806 5808 5810 5812 5813 5815 5816 5817 5818 5819 5820
5672 5677 5682 5687 5692 5697 5702 5707 5711 5716 5721 5724 5728 5732 5737 5742 5746 5750 5754 5758 5762 5766 5769 5773 5776 5780 5783 5786 5789 5792 5794 5796 5798 5800 5802 5804 5806 5808 5809 5810 5811 5812 5813
5660 5665 5671 5676 5681 5685 5690 5694 5699 5704 5709 5713 5717 5721 5726 5731 5736 5740 5743 5748 5752 5756 5760 5763 5766 5770 5774 5777 5780 5783 5786 5788 5791 5793 5795 5797 5799 5800 5802 5803 5804 5805 5806
5648 5653 5659 5664 5669 5673 5678 5682 5687 5692 5697 5701 5706 5710 5715 5719 5724 5729 5733 5737 5741 5746 5750 5753 5757 5760 5764 5767 5770 5773 5776 5779 5782 5785 5787 5789 5791 5793 5794 5796 5797 5798 5799
5636 5641 5646 5652 5657 5661 5666 5670 5675 5680 5685 5689 5694 5698 5703 5708 5713 5717 5722 5726 5730 5735 5739 5743 5747 5750 5754 5758 5761 5764 5767 5770 5773 5776 5778 5781 5783 5785 5786 5788 5789 5790 5791